Regional Weather Roundup
Issued by NWS Little Rock, AR

Home | Current Version | Previous Version | Text Only | Print | Product List | Glossary On
Versions: 1 2 3 4 5 6 7 8 9 10 11 12 13 14 15 16 17 18 19 20 21 22 23 24 25 26 27 28 29 30 31 32 33 34 35 36 37 38 39 40 41 42 43 44 45 46 47 48 49
000
ASUS44 KLZK 040805
RWRLZK

WEATHER ROUNDUP FOR ARKANSAS
NATIONAL WEATHER SERVICE LITTLE ROCK AR
300 AM CDT MON MAY 04 2015

NOTE: "FAIR" INDICATES FEW OR NO CLOUDS BELOW 12,000 FEET WITH NO
SIGNIFICANT WEATHER AND/OR OBSTRUCTIONS TO VISIBILITY.

ARZ001-003-010-029-040900-
NORTHWEST ARKANSAS

CITY           SKY/WX    TMP DP  RH WIND       PRES   REMARKS
FAYETTEVILLE   PTCLDY    56  55  97 CALM      30.05R
FORT SMITH     PTCLDY    62  55  77 CALM      30.02S
HARRISON       PTCLDY    62  55  77 CALM      30.05S
BENTONVILLE    MOCLDY   N/A N/A N/A S3        30.04R
ROGERS         MOCLDY    63  55  75 S5        30.05R
SILOAM SPGS    MOCLDY    61  52  72 S3        30.05R
HIGHFILL       MOCLDY    61  54  77 S5        30.03R
$$

ARZ004-005-016-040900-
NORTH CENTRAL ARKANSAS

CITY           SKY/WX    TMP DP  RH WIND       PRES   REMARKS
BATESVILLE     CLEAR     63  55  77 S3        30.06R
FLIPPIN        PTCLDY    61  55  82 CALM      30.03S
MTN HOME       PTCLDY    62  55  77 SE3       30.04S
$$

ARZ040-041-040900-
WEST CENTRAL ARKANSAS

CITY           SKY/WX    TMP DP  RH WIND       PRES   REMARKS
MENA           CLEAR     70  55  60 CALM      30.05S
MOUNT IDA      CLEAR     59  56  89 CALM      30.03S
$$

ARZ009-017-025-026-028-040900-
NORTHEAST ARKANSAS

CITY           SKY/WX    TMP DP  RH WIND       PRES   REMARKS
CORNING          N/A     64  54  68 S5        30.06R
JONESBORO      CLEAR     57  54  89 CALM      30.07R
NEWPORT        CLEAR     61  56  83 S6        30.08R
WALNUT RIDGE   CLEAR     61  52  72 S7        30.06R
BLYTHEVILLE    CLEAR     65  51  60 S8        30.08R
$$

ARZ022-023-033-042-044-040900-
CENTRAL ARKANSAS

CITY           SKY/WX    TMP DP  RH WIND       PRES   REMARKS
LITTLE ROCK    CLEAR     65  55  70 CALM      30.06R
N LITTLE ROCK    N/A     65  59  83 SW5       30.06R
JACKSONVILLE   CLEAR     65  58  77 SW1       30.05R
SEARCY         CLEAR     59  57  93 CALM      30.08R
HOT SPRINGS    CLEAR     66  57  72 VRB3      30.05S
RUSSELLVILLE   CLEAR     59  57  93 CALM      30.05R
CLINTON        FAIR      55  55 100 CALM      30.07R FOG
$$

ARZ036-040900-
EAST ARKANSAS

CITY           SKY/WX    TMP DP  RH WIND       PRES   REMARKS
WEST MEMPHIS   CLEAR     64  57  78 S6        30.07R
$$

ARZ050-053-066-070-073-040900-
SOUTHWEST ARKANSAS

CITY           SKY/WX    TMP DP  RH WIND       PRES   REMARKS
ARKADELPHIA    FAIR      59  59 100 CALM      30.06R FOG
CAMDEN         CLEAR     57  55  94 CALM      30.06S
TEXARKANA      CLEAR     65  57  75 S8        30.05S
EL DORADO      MOCLDY    61  58  90 CALM      30.07R
DE QUEEN       MOCLDY    56  55  97 CALM      30.03R FOG
$$

ARZ056-057-069-040900-
SOUTHEAST ARKANSAS

CITY           SKY/WX    TMP DP  RH WIND       PRES   REMARKS
PINE BLUFF     CLEAR     62  56  80 S5        30.06S
STUTTGART      CLEAR     64  55  72 S8        30.07R
MONTICELLO     CLEAR     66  56  70 S6        30.07S

$$




USA.gov is the U.S. government's official web portal to all federal, state and local government web resources and services.